User: anonymous   Login
Location: Columbus
(29.5618°N, 96.6770°W)
Time: 04:23:02
(UTC-06:00)
Language:

Cosmos 2056 Rocket - Orbit

View from above orbital plane
View from above orbital plane
View from above satellite
View from above satellite

Ground track
Ground track

The orbit data is extracted from the following two-line orbital elements,

1 20433U 90004B   17053.87847161  .00000056  00000-0  28031-4 0  9992
2 20433  74.0355 206.0035 0040957   1.6509 107.9528 14.35975631418795
Epoch (UTC): 22 February 2017 21:04:59
Eccentricity: 0.0040957
inclination: 74.0355°
perigee height: 742 km
apogee height: 801 km
right ascension of ascending node: 206.0035°
argument of perigee: 1.6509°
revolutions per day: 14.35975631
mean anomaly at epoch: 107.9528°
orbit number at epoch: 41879

The dashed part of the orbit path shows where the satellite is in the earth's shadow,  

DLR